| time (UTC) | temp F | wind direction | speed knots | gust knots | rain 1hr in | rain 24hr in | rain mn in | humidity % | barometer mb |
| 20260507221547 | 61 | 253 | 3.5 | 9.6 | 0.00 | 0.11 | 0.05 | 31 | 1005.6 |
| 20260507221033 | 61 | 286 | 0.0 | 7.0 | 0.00 | 0.11 | 0.05 | 36 | 1005.6 |
| 20260507220530 | 61 | 55 | 0.9 | 9.6 | 0.00 | 0.11 | 0.05 | 31 | 1005.7 |
| 20260507220046 | 61 | 220 | 2.6 | 9.6 | 0.00 | 0.11 | 0.05 | 31 | 1005.7 |
| 20260507215534 | 61 | 327 | 3.5 | 9.6 | 0.00 | 0.12 | 0.05 | 30 | 1005.7 |
| 20260507215032 | 61 | 294 | 1.7 | 9.6 | 0.00 | 0.12 | 0.05 | 32 | 1005.6 |
| 20260507214551 | 61 | 217 | 0.9 | 13.0 | 0.00 | 0.12 | 0.05 | 30 | 1005.7 |
| 20260507214030 | 62 | 273 | 3.5 | 13.0 | 0.00 | 0.12 | 0.05 | 30 | 1005.6 |
| 20260507213530 | 62 | 178 | 2.6 | 10.4 | 0.00 | 0.12 | 0.05 | 30 | 1005.5 |
| 20260507213042 | 62 | 326 | 3.5 | 8.7 | 0.00 | 0.12 | 0.05 | 31 | 1005.4 |
| 20260507212530 | 62 | 255 | 1.7 | 9.6 | 0.00 | 0.12 | 0.05 | 30 | 1005.4 |
| 20260507212031 | 62 | 288 | 1.7 | 10.4 | 0.00 | 0.12 | 0.05 | 31 | 1005.5 |
| 20260507211545 | 63 | 344 | 2.6 | 10.4 | 0.00 | 0.12 | 0.05 | 31 | 1005.4 |
| 20260507211031 | 63 | 284 | 0.9 | 7.8 | 0.00 | 0.12 | 0.05 | 30 | 1005.4 |
| 20260507210530 | 62 | 281 | 1.7 | 9.6 | 0.00 | 0.12 | 0.05 | 31 | 1005.4 |
| 20260507210046 | 63 | 311 | 1.7 | 11.3 | 0.00 | 0.12 | 0.05 | 32 | 1005.3 |
| 20260507205536 | 63 | 331 | 0.9 | 11.3 | 0.00 | 0.21 | 0.05 | 31 | 1005.3 |
| 20260507205034 | 63 | 292 | 3.5 | 10.4 | 0.00 | 0.21 | 0.05 | 30 | 1005.3 |
| 20260507204549 | 63 | 245 | 2.6 | 10.4 | 0.00 | 0.21 | 0.05 | 31 | 1005.3 |
| 20260507204031 | 63 | 292 | 3.5 | 10.4 | 0.00 | 0.21 | 0.05 | 33 | 1005.3 |
| 20260507203533 | 63 | 235 | 2.6 | 9.6 | 0.00 | 0.21 | 0.05 | 31 | 1005.3 |
| 20260507203045 | 63 | 297 | 3.5 | 9.6 | 0.00 | 0.21 | 0.05 | 31 | 1005.3 |
| 20260507202534 | 63 | 254 | 2.6 | 12.2 | 0.00 | 0.21 | 0.05 | 31 | 1005.3 |
| 20260507202038 | 63 | 342 | 1.7 | 12.2 | 0.00 | 0.21 | 0.05 | 32 | 1005.3 |
| 20260507201552 | 62 | 360 | 4.3 | 12.2 | 0.00 | 0.21 | 0.05 | 31 | 1005.3 |
| 20260507201034 | 62 | 360 | 2.6 | 12.2 | 0.00 | 0.21 | 0.05 | 32 | 1005.4 |
| 20260507200533 | 63 | 224 | 3.5 | 12.2 | 0.00 | 0.21 | 0.05 | 31 | 1005.4 |
| 20260507200054 | 64 | 197 | 2.6 | 13.9 | 0.00 | 0.21 | 0.05 | 31 | 1005.5 |
| 20260507195532 | 63 | 260 | 3.5 | 13.9 | 0.00 | 0.24 | 0.05 | 30 | 1005.5 |
| 20260507195034 | 63 | 360 | 6.1 | 13.9 | 0.00 | 0.24 | 0.05 | 29 | 1005.5 |
| 20260507194541 | 64 | 267 | 0.9 | 13.9 | 0.00 | 0.24 | 0.05 | 29 | 1005.5 |
| 20260507194032 | 64 | 300 | 1.7 | 8.7 | 0.00 | 0.24 | 0.05 | 32 | 1005.6 |
| 20260507193534 | 64 | 340 | 1.7 | 7.0 | 0.00 | 0.24 | 0.05 | 30 | 1005.5 |
| 20260507193051 | 64 | 0 | 0.9 | 13.0 | 0.00 | 0.24 | 0.05 | 32 | 1005.6 |
| 20260507192531 | 63 | 178 | 3.5 | 13.0 | 0.00 | 0.24 | 0.05 | 32 | 1005.7 |
| 20260507192031 | 63 | 360 | 3.5 | 10.4 | 0.00 | 0.24 | 0.05 | 30 | 1005.6 |
| 20260507191546 | 64 | 183 | 3.5 | 10.4 | 0.00 | 0.24 | 0.05 | 31 | 1005.7 |
| 20260507191030 | 64 | 249 | 0.9 | 7.0 | 0.00 | 0.24 | 0.05 | 29 | 1005.7 |
| 20260507190531 | 64 | 13 | 1.7 | 7.8 | 0.00 | 0.24 | 0.05 | 31 | 1005.7 |
| 20260507190050 | 64 | 306 | 0.9 | 13.0 | 0.00 | 0.24 | 0.05 | 32 | 1005.8 |
| 20260507185531 | 64 | 215 | 1.7 | 13.0 | 0.00 | 0.24 | 0.05 | 30 | 1005.8 |
| 20260507185033 | 63 | 328 | 0.9 | 9.6 | 0.00 | 0.24 | 0.05 | 32 | 1005.8 |
| 20260507184543 | 65 | 211 | 1.7 | 9.6 | 0.00 | 0.24 | 0.05 | 29 | 1005.9 |
| 20260507184032 | 64 | 233 | 2.6 | 9.6 | 0.00 | 0.24 | 0.05 | 30 | 1005.8 |
| 20260507183531 | 64 | 360 | 0.9 | 7.8 | 0.00 | 0.24 | 0.05 | 34 | 1005.9 |
| 20260507183042 | 64 | 360 | 1.7 | 10.4 | 0.00 | 0.24 | 0.05 | 32 | 1006.0 |
| 20260507182531 | 63 | 360 | 4.3 | 13.9 | 0.00 | 0.24 | 0.05 | 32 | 1006.0 |
| 20260507182030 | 63 | 360 | 3.5 | 13.9 | 0.00 | 0.24 | 0.05 | 31 | 1006.0 |
| 20260507181543 | 64 | 360 | 1.7 | 11.3 | 0.00 | 0.24 | 0.05 | 30 | 1006.1 |
| 20260507181030 | 64 | 360 | 1.7 | 10.4 | 0.00 | 0.24 | 0.05 | 31 | 1006.2 |
| 20260507180535 | 62 | 360 | 5.2 | 10.4 | 0.00 | 0.24 | 0.05 | 33 | 1006.0 |
| 20260507180052 | 63 | 360 | 3.5 | 7.8 | 0.00 | 0.24 | 0.05 | 32 | 1006.2 |
| 20260507175533 | 64 | 360 | 1.7 | 7.8 | 0.00 | 0.24 | 0.05 | 33 | 1006.2 |
| 20260507175031 | 63 | 360 | 1.7 | 7.8 | 0.00 | 0.24 | 0.05 | 31 | 1006.3 |
| 20260507174555 | 63 | 360 | 2.6 | 7.8 | 0.00 | 0.24 | 0.05 | 31 | 1006.2 |
| 20260507174032 | 64 | 360 | 1.7 | 7.8 | 0.00 | 0.24 | 0.05 | 33 | 1006.2 |
| 20260507173530 | 64 | 360 | 0.9 | 7.8 | 0.00 | 0.24 | 0.05 | 35 | 1006.1 |
| 20260507173044 | 62 | 360 | 0.9 | 7.8 | 0.00 | 0.24 | 0.05 | 36 | 1006.1 |
| 20260507172532 | 62 | 360 | 2.6 | 8.7 | 0.00 | 0.24 | 0.05 | 39 | 1006.2 |
| 20260507172031 | 62 | 360 | 2.6 | 8.7 | 0.00 | 0.24 | 0.05 | 36 | 1006.3 |
| 20260507171554 | 61 | 360 | 1.7 | 9.6 | 0.00 | 0.24 | 0.05 | 38 | 1006.5 |
| 20260507171030 | 62 | 360 | 2.6 | 9.6 | 0.00 | 0.24 | 0.05 | 38 | 1006.5 |
| 20260507170533 | 61 | 360 | 4.3 | 9.6 | 0.00 | 0.24 | 0.05 | 40 | 1006.6 |
| 20260507170048 | 62 | 360 | 0.9 | 7.8 | 0.00 | 0.24 | 0.05 | 40 | 1006.6 |
| 20260507165532 | 62 | 360 | 2.6 | 11.3 | 0.00 | 0.24 | 0.05 | 41 | 1006.7 |
| 20260507165030 | 61 | 360 | 5.2 | 11.3 | 0.00 | 0.24 | 0.05 | 39 | 1006.6 |
| 20260507164541 | 62 | 360 | 3.5 | 11.3 | 0.00 | 0.24 | 0.05 | 41 | 1006.7 |
| 20260507164031 | 62 | 360 | 0.9 | 11.3 | 0.00 | 0.24 | 0.05 | 46 | 1006.8 |
| 20260507163532 | 62 | 360 | 4.3 | 12.2 | 0.00 | 0.24 | 0.05 | 45 | 1006.9 |
| 20260507163047 | 62 | 360 | 5.2 | 12.2 | 0.00 | 0.24 | 0.05 | 45 | 1006.9 |
| 20260507162531 | 61 | 360 | 3.5 | 12.2 | 0.00 | 0.24 | 0.05 | 46 | 1006.9 |
| 20260507162033 | 60 | 360 | 5.2 | 12.2 | 0.00 | 0.24 | 0.05 | 46 | 1006.9 |
| 20260507161553 | 60 | 360 | 3.5 | 12.2 | 0.00 | 0.24 | 0.05 | 51 | 1007.0 |
| 20260507161054 | 60 | 360 | 2.6 | 11.3 | 0.00 | 0.24 | 0.05 | 52 | 1007.1 |
| 20260507160531 | 60 | 360 | 3.5 | 8.7 | 0.00 | 0.24 | 0.05 | 49 | 1007.0 |
| 20260507160044 | 60 | 360 | 3.5 | 10.4 | 0.00 | 0.24 | 0.05 | 51 | 1007.1 |
| 20260507155530 | 59 | 360 | 3.5 | 13.0 | 0.00 | 0.24 | 0.05 | 51 | 1007.1 |
| 20260507155037 | 59 | 0 | 4.3 | 13.9 | 0.00 | 0.24 | 0.05 | 50 | 1007.2 |
| 20260507154546 | 60 | 360 | 7.0 | 13.9 | 0.00 | 0.24 | 0.05 | 51 | 1007.2 |
| 20260507154034 | 60 | 360 | 5.2 | 11.3 | 0.00 | 0.24 | 0.05 | 51 | 1007.1 |
| 20260507153533 | 60 | 360 | 2.6 | 11.3 | 0.00 | 0.24 | 0.05 | 52 | 1007.1 |
| 20260507153052 | 59 | 360 | 0.9 | 9.6 | 0.00 | 0.24 | 0.05 | 57 | 1007.2 |
| 20260507152536 | 59 | 0 | 0.9 | 9.6 | 0.00 | 0.24 | 0.05 | 56 | 1007.2 |
| 20260507152031 | 59 | 360 | 3.5 | 9.6 | 0.00 | 0.24 | 0.05 | 54 | 1007.3 |
| 20260507151540 | 58 | 360 | 6.1 | 9.6 | 0.00 | 0.24 | 0.05 | 55 | 1007.3 |
| 20260507151034 | 58 | 360 | 3.5 | 9.6 | 0.00 | 0.24 | 0.05 | 55 | 1007.4 |
| 20260507150531 | 58 | 360 | 2.6 | 8.7 | 0.00 | 0.24 | 0.05 | 57 | 1007.5 |
| 20260507150052 | 58 | 360 | 2.6 | 13.0 | 0.00 | 0.24 | 0.05 | 55 | 1007.6 |
| 20260507145532 | 58 | 360 | 1.7 | 13.0 | 0.00 | 0.24 | 0.05 | 57 | 1007.6 |
| 20260507145030 | 58 | 360 | 2.6 | 8.7 | 0.00 | 0.24 | 0.05 | 56 | 1007.8 |
| 20260507144545 | 58 | 360 | 0.9 | 7.0 | 0.00 | 0.24 | 0.05 | 56 | 1007.8 |
| 20260507144031 | 59 | 360 | 0.9 | 7.8 | 0.00 | 0.24 | 0.05 | 59 | 1008.0 |
| 20260507143531 | 58 | 360 | 1.7 | 7.8 | 0.00 | 0.24 | 0.05 | 60 | 1007.9 |
| 20260507143050 | 57 | 360 | 1.7 | 7.8 | 0.00 | 0.24 | 0.05 | 55 | 1007.7 |
| 20260507142534 | 58 | 360 | 1.7 | 4.3 | 0.00 | 0.24 | 0.05 | 57 | 1007.9 |
| 20260507142034 | 57 | 360 | 1.7 | 4.3 | 0.00 | 0.24 | 0.05 | 55 | 1007.9 |
| 20260507141542 | 58 | 0 | 0.9 | 4.3 | 0.00 | 0.24 | 0.05 | 59 | 1007.9 |
| 20260507141033 | 59 | 360 | 0.9 | 7.0 | 0.00 | 0.24 | 0.05 | 54 | 1007.9 |
| 20260507140535 | 58 | 360 | 0.9 | 7.0 | 0.00 | 0.24 | 0.05 | 55 | 1007.8 |
| 20260507140046 | 59 | 360 | 0.9 | 7.0 | 0.00 | 0.24 | 0.05 | 56 | 1007.9 |
| 20260507135534 | 58 | 360 | 0.9 | 5.2 | 0.00 | 0.24 | 0.05 | 56 | 1007.8 |
| 20260507135038 | 59 | 360 | 0.9 | 7.0 | 0.00 | 0.24 | 0.05 | 55 | 1007.8 |
| 20260507134553 | 57 | 360 | 1.7 | 7.0 | 0.00 | 0.24 | 0.05 | 55 | 1007.7 |
| 20260507134031 | 58 | 360 | 0.9 | 7.0 | 0.00 | 0.24 | 0.05 | 59 | 1007.9 |
| 20260507133534 | 55 | 0 | 3.5 | 7.0 | 0.00 | 0.24 | 0.05 | 61 | 1007.9 |
| 20260507133051 | 55 | 360 | 1.7 | 7.8 | 0.00 | 0.24 | 0.05 | 61 | 1007.9 |
| 20260507132534 | 56 | 360 | 2.6 | 7.8 | 0.00 | 0.24 | 0.05 | 61 | 1008.0 |
| 20260507132031 | 56 | 360 | 3.5 | 7.8 | 0.00 | 0.24 | 0.05 | 60 | 1008.1 |
| 20260507131545 | 56 | 360 | 0.9 | 4.3 | 0.00 | 0.24 | 0.05 | 64 | 1008.2 |
| 20260507131031 | 56 | 360 | 0.9 | 7.0 | 0.00 | 0.24 | 0.05 | 65 | 1008.2 |
| 20260507130532 | 55 | 360 | 1.7 | 7.0 | 0.00 | 0.24 | 0.05 | 66 | 1008.1 |
| 20260507130057 | 56 | 360 | 0.0 | 5.2 | 0.00 | 0.24 | 0.05 | 68 | 1008.2 |
| 20260507125535 | 56 | 360 | 0.0 | 4.3 | 0.00 | 0.24 | 0.05 | 69 | 1008.3 |
| 20260507125033 | 55 | 360 | 0.0 | 7.8 | 0.00 | 0.24 | 0.05 | 71 | 1008.5 |
| 20260507124559 | 53 | 0 | 1.7 | 7.8 | 0.00 | 0.24 | 0.05 | 72 | 1008.4 |
| 20260507124034 | 53 | 360 | 0.9 | 7.8 | 0.00 | 0.24 | 0.05 | 73 | 1008.5 |
| 20260507123533 | 53 | 360 | 2.6 | 7.8 | 0.00 | 0.24 | 0.05 | 75 | 1008.4 |
| 20260507123052 | 53 | 0 | 0.9 | 2.6 | 0.00 | 0.24 | 0.05 | 77 | 1008.4 |
| 20260507122531 | 52 | 0 | 0.0 | 4.3 | 0.00 | 0.24 | 0.05 | 80 | 1008.3 |
| 20260507122034 | 51 | 0 | 0.0 | 4.3 | 0.00 | 0.24 | 0.05 | 80 | 1008.4 |
| 20260507121545 | 52 | 0 | 0.0 | 4.3 | 0.00 | 0.24 | 0.05 | 80 | 1008.4 |
| 20260507121035 | 50 | 360 | 0.0 | 4.3 | 0.00 | 0.24 | 0.05 | 83 | 1008.3 |
| 20260507120540 | 50 | 360 | 0.0 | 3.5 | 0.00 | 0.24 | 0.05 | 83 | 1008.3 |
| 20260507120048 | 50 | 0 | 0.9 | 5.2 | 0.00 | 0.24 | 0.05 | 83 | 1008.2 |
| 20260507115534 | 50 | 0 | 0.9 | 5.2 | 0.01 | 0.24 | 0.05 | 83 | 1008.4 |
| 20260507115034 | 50 | 360 | 0.9 | 5.2 | 0.01 | 0.24 | 0.05 | 84 | 1008.4 |
| 20260507114547 | 49 | 0 | 0.9 | 5.2 | 0.01 | 0.24 | 0.05 | 84 | 1008.3 |
| 20260507114035 | 49 | 0 | 0.0 | 4.3 | 0.01 | 0.24 | 0.05 | 85 | 1008.1 |
| 20260507113537 | 49 | 0 | 0.0 | 2.6 | 0.01 | 0.24 | 0.05 | 86 | 1008.0 |
| 20260507113044 | 49 | 0 | 0.9 | 2.6 | 0.01 | 0.24 | 0.05 | 86 | 1008.4 |
| 20260507112537 | 48 | 0 | 0.0 | 0.9 | 0.01 | 0.24 | 0.05 | 87 | 1008.3 |
| 20260507112034 | 48 | 0 | 0.0 | 0.9 | 0.01 | 0.24 | 0.05 | 87 | 1008.2 |
| 20260507111544 | 48 | 0 | 0.0 | 1.7 | 0.01 | 0.24 | 0.05 | 87 | 1008.2 |
| 20260507111035 | 48 | 0 | 0.0 | 1.7 | 0.01 | 0.24 | 0.05 | 88 | 1008.1 |
| 20260507110534 | 48 | 0 | 0.0 | 0.9 | 0.01 | 0.24 | 0.05 | 88 | 1007.8 |
| 20260507110042 | 48 | 0 | 0.0 | 0.9 | 0.01 | 0.24 | 0.05 | 88 | 1007.9 |
| 20260507105534 | 48 | 0 | 0.0 | 0.9 | 0.00 | 0.23 | 0.04 | 88 | 1008.2 |
| 20260507105031 | 48 | 0 | 0.0 | 2.6 | 0.00 | 0.23 | 0.04 | 88 | 1008.2 |
| 20260507104554 | 48 | 0 | 0.0 | 2.6 | 0.00 | 0.23 | 0.04 | 88 | 1008.1 |
| 20260507104037 | 48 | 360 | 0.0 | 1.7 | 0.00 | 0.23 | 0.04 | 88 | 1008.3 |
| 20260507103531 | 47 | 360 | 0.0 | 2.6 | 0.00 | 0.23 | 0.04 | 88 | 1008.0 |
| 20260507103046 | 47 | 360 | 0.0 | 2.6 | 0.00 | 0.23 | 0.04 | 88 | 1007.6 |
| 20260507102531 | 47 | 0 | 0.0 | 0.9 | 0.00 | 0.23 | 0.04 | 88 | 1007.6 |
| 20260507102031 | 47 | 0 | 0.0 | 0.9 | 0.01 | 0.23 | 0.04 | 88 | 1007.4 |
| 20260507101559 | 47 | 0 | 0.0 | 0.9 | 0.01 | 0.23 | 0.04 | 88 | 1007.4 |
| 20260507101034 | 47 | 0 | 0.0 | 3.5 | 0.01 | 0.23 | 0.04 | 88 | 1007.4 |
| 20260507100534 | 47 | 0 | 0.0 | 3.5 | 0.01 | 0.23 | 0.04 | 88 | 1007.5 |
| 20260507100054 | 47 | 0 | 0.9 | 3.5 | 0.01 | 0.23 | 0.04 | 88 | 1007.5 |
| 20260507095535 | 47 | 0 | 0.0 | 3.5 | 0.01 | 0.23 | 0.04 | 88 | 1007.2 |
| 20260507095031 | 47 | 0 | 0.0 | 3.5 | 0.01 | 0.23 | 0.04 | 88 | 1007.0 |
| 20260507094543 | 48 | 0 | 0.0 | 0.0 | 0.01 | 0.23 | 0.04 | 87 | 1007.4 |
| 20260507094034 | 48 | 0 | 0.0 | 0.9 | 0.01 | 0.23 | 0.04 | 87 | 1007.3 |
| 20260507093533 | 48 | 0 | 0.0 | 1.7 | 0.01 | 0.23 | 0.04 | 87 | 1007.4 |
| 20260507093053 | 48 | 0 | 0.0 | 1.7 | 0.01 | 0.23 | 0.04 | 87 | 1007.6 |
| 20260507092533 | 48 | 0 | 0.0 | 1.7 | 0.01 | 0.23 | 0.04 | 87 | 1007.5 |
| 20260507092038 | 48 | 0 | 0.0 | 3.5 | 0.00 | 0.22 | 0.03 | 87 | 1007.4 |
| 20260507091550 | 48 | 0 | 0.0 | 3.5 | 0.00 | 0.22 | 0.03 | 87 | 1007.4 |
| 20260507091031 | 49 | 0 | 0.0 | 2.6 | 0.00 | 0.22 | 0.03 | 87 | 1007.6 |
| 20260507090535 | 49 | 360 | 0.0 | 0.9 | 0.00 | 0.22 | 0.03 | 87 | 1007.7 |
| 20260507090049 | 49 | 0 | 0.0 | 0.0 | 0.00 | 0.22 | 0.03 | 88 | 1007.8 |
| 20260507085532 | 49 | 0 | 0.0 | 1.7 | 0.00 | 0.22 | 0.03 | 88 | 1007.7 |
| 20260507085031 | 49 | 0 | 0.0 | 4.3 | 0.00 | 0.22 | 0.03 | 88 | 1007.6 |
| 20260507084549 | 49 | 360 | 0.0 | 4.3 | 0.01 | 0.22 | 0.03 | 88 | 1007.5 |
| 20260507084033 | 49 | 360 | 0.0 | 2.6 | 0.02 | 0.22 | 0.03 | 88 | 1007.6 |
| 20260507083535 | 50 | 0 | 0.0 | 2.6 | 0.02 | 0.22 | 0.03 | 88 | 1007.4 |
| 20260507083058 | 50 | 0 | 0.0 | 2.6 | 0.02 | 0.22 | 0.03 | 88 | 1007.5 |
| 20260507082531 | 49 | 0 | 0.0 | 2.6 | 0.02 | 0.22 | 0.03 | 87 | 1007.4 |
| 20260507082031 | 50 | 0 | 0.0 | 2.6 | 0.02 | 0.22 | 0.03 | 87 | 1007.1 |
| 20260507081547 | 50 | 0 | 0.0 | 2.6 | 0.02 | 0.22 | 0.03 | 88 | 1006.9 |
| 20260507081033 | 50 | 0 | 0.0 | 2.6 | 0.02 | 0.22 | 0.03 | 87 | 1007.0 |
| 20260507080537 | 50 | 360 | 0.0 | 1.7 | 0.02 | 0.22 | 0.03 | 87 | 1007.1 |
| 20260507080042 | 50 | 0 | 0.0 | 9.6 | 0.02 | 0.22 | 0.03 | 87 | 1007.1 |
| 20260507075531 | 51 | 360 | 0.9 | 9.6 | 0.02 | 0.22 | 0.03 | 87 | 1007.4 |
| 20260507075034 | 51 | 360 | 1.7 | 5.2 | 0.02 | 0.22 | 0.03 | 87 | 1007.4 |
| 20260507074540 | 52 | 360 | 0.0 | 3.5 | 0.01 | 0.21 | 0.02 | 87 | 1007.1 |
| 20260507074032 | 52 | 0 | 0.0 | 4.3 | 0.00 | 0.20 | 0.01 | 86 | 1007.0 |
| 20260507073534 | 52 | 0 | 0.9 | 4.3 | 0.00 | 0.20 | 0.01 | 86 | 1007.4 |
| 20260507073050 | 52 | 360 | 0.9 | 4.3 | 0.00 | 0.20 | 0.01 | 85 | 1007.1 |
| 20260507072533 | 52 | 360 | 0.0 | 2.6 | 0.00 | 0.20 | 0.01 | 86 | 1006.7 |
| 20260507072038 | 52 | 0 | 0.0 | 0.0 | 0.00 | 0.20 | 0.01 | 85 | 1006.6 |
| 20260507071548 | 52 | 0 | 0.0 | 0.0 | 0.00 | 0.20 | 0.01 | 85 | 1006.5 |
| 20260507071036 | 52 | 0 | 0.0 | 0.0 | 0.00 | 0.20 | 0.01 | 85 | 1006.6 |
| 20260507070535 | 52 | 0 | 0.0 | 2.6 | 0.00 | 0.20 | 0.01 | 84 | 1006.6 |
| 20260507070047 | 52 | 0 | 0.0 | 2.6 | 0.00 | 0.20 | 0.01 | 84 | 1006.7 |
| 20260507065534 | 52 | 0 | 0.0 | 1.7 | 0.00 | 0.20 | 0.01 | 84 | 1006.5 |
| 20260507065030 | 52 | 0 | 0.0 | 3.5 | 0.00 | 0.20 | 0.01 | 84 | 1006.3 |
| 20260507064545 | 52 | 0 | 0.0 | 3.5 | 0.00 | 0.20 | 0.01 | 83 | 1006.5 |
| 20260507064031 | 52 | 0 | 0.9 | 3.5 | 0.00 | 0.20 | 0.01 | 83 | 1006.5 |
| 20260507063532 | 52 | 0 | 0.0 | 2.6 | 0.00 | 0.20 | 0.01 | 83 | 1006.5 |
| 20260507063049 | 52 | 0 | 0.0 | 3.5 | 0.00 | 0.20 | 0.01 | 83 | 1006.6 |
| 20260507062530 | 53 | 0 | 0.0 | 4.3 | 0.00 | 0.20 | 0.01 | 84 | 1006.6 |
| 20260507062030 | 53 | 0 | 0.0 | 4.3 | 0.00 | 0.20 | 0.01 | 85 | 1006.6 |
| 20260507061544 | 53 | 360 | 0.9 | 4.3 | 0.00 | 0.20 | 0.01 | 85 | 1006.6 |
| 20260507061033 | 53 | 0 | 0.0 | 3.5 | 0.00 | 0.20 | 0.01 | 86 | 1006.4 |
| 20260507060530 | 53 | 0 | 0.0 | 3.5 | 0.00 | 0.20 | 0.01 | 87 | 1006.5 |
| 20260507060044 | 53 | 0 | 0.0 | 5.2 | 0.00 | 0.20 | 0.01 | 87 | 1006.6 |
| 20260507055531 | 54 | 360 | 0.0 | 5.2 | 0.00 | 0.20 | 0.01 | 87 | 1006.6 |
| 20260507055031 | 54 | 360 | 0.0 | 3.5 | 0.01 | 0.20 | 0.01 | 87 | 1006.6 |
| 20260507054543 | 54 | 360 | 0.0 | 3.5 | 0.01 | 0.20 | 0.01 | 88 | 1006.6 |
| 20260507054031 | 54 | 0 | 0.0 | 7.0 | 0.01 | 0.20 | 0.01 | 88 | 1006.7 |
| 20260507053530 | 54 | 0 | 0.0 | 7.0 | 0.01 | 0.20 | 0.01 | 88 | 1006.9 |
| 20260507053049 | 54 | 360 | 0.9 | 5.2 | 0.01 | 0.20 | 0.01 | 88 | 1006.9 |
| 20260507052531 | 54 | 0 | 0.0 | 4.3 | 0.01 | 0.20 | 0.01 | 88 | 1006.7 |
| 20260507052031 | 54 | 360 | 0.9 | 4.3 | 0.01 | 0.20 | 0.01 | 88 | 1006.7 |
| 20260507051539 | 54 | 0 | 0.0 | 1.7 | 0.01 | 0.20 | 0.01 | 88 | 1006.8 |
| 20260507051030 | 55 | 0 | 0.0 | 1.7 | 0.01 | 0.20 | 0.01 | 88 | 1006.5 |
| 20260507050530 | 55 | 0 | 0.0 | 1.7 | 0.01 | 0.20 | 0.01 | 88 | 1006.5 |
| 20260507050045 | 55 | 0 | 0.0 | 1.7 | 0.01 | 0.20 | 0.01 | 88 | 1006.7 |
| 20260507045531 | 55 | 0 | 0.0 | 1.7 | 0.01 | 0.20 | 0.01 | 88 | 1006.9 |
| 20260507045031 | 55 | 0 | 0.0 | 3.5 | 0.00 | 0.19 | 0.00 | 88 | 1006.9 |
| 20260507044546 | 55 | 0 | 0.0 | 3.5 | 0.00 | 0.19 | 0.00 | 88 | 1006.9 |
| 20260507044032 | 55 | 360 | 0.0 | 2.6 | 0.00 | 0.19 | 0.00 | 88 | 1006.7 |
| 20260507043532 | 56 | 360 | 0.0 | 2.6 | 0.00 | 0.19 | 0.00 | 88 | 1006.7 |
| 20260507043042 | 57 | 360 | 0.9 | 5.2 | 0.00 | 0.19 | 0.00 | 88 | 1006.6 |
| 20260507042533 | 58 | 0 | 0.0 | 5.2 | 0.00 | 0.19 | 0.00 | 89 | 1006.6 |
| 20260507042030 | 58 | 360 | 0.9 | 4.3 | 0.00 | 0.19 | 0.00 | 89 | 1006.5 |
| 20260507041548 | 58 | 360 | 0.9 | 4.3 | 0.01 | 0.19 | 0.00 | 89 | 1006.6 |
| 20260507041033 | 58 | 360 | 1.7 | 5.2 | 0.01 | 0.19 | 0.00 | 89 | 1006.5 |
| 20260507040532 | 58 | 360 | 1.7 | 8.7 | 0.01 | 0.19 | 0.00 | 89 | 1006.6 |
| 20260507040045 | 58 | 360 | 1.7 | 8.7 | 0.01 | 0.19 | 0.00 | 89 | 1006.6 |
| 20260507035531 | 58 | 360 | 0.9 | 4.3 | 0.01 | 0.19 | 0.19 | 89 | 1006.7 |
| 20260507035033 | 58 | 0 | 0.9 | 4.3 | 0.01 | 0.19 | 0.19 | 89 | 1006.5 |
| 20260507034546 | 58 | 360 | 0.9 | 7.8 | 0.01 | 0.19 | 0.19 | 89 | 1006.3 |
| 20260507034031 | 58 | 360 | 0.9 | 7.8 | 0.01 | 0.19 | 0.19 | 89 | 1006.2 |
| 20260507033532 | 58 | 360 | 3.5 | 9.6 | 0.01 | 0.19 | 0.19 | 89 | 1006.1 |
| 20260507033044 | 58 | 360 | 1.7 | 10.4 | 0.01 | 0.19 | 0.19 | 89 | 1006.2 |
| 20260507032533 | 59 | 360 | 4.3 | 10.4 | 0.01 | 0.19 | 0.19 | 89 | 1006.4 |
| 20260507032030 | 59 | 360 | 2.6 | 10.4 | 0.01 | 0.19 | 0.19 | 89 | 1006.2 |
| 20260507031541 | 59 | 360 | 3.5 | 8.7 | 0.00 | 0.18 | 0.18 | 89 | 1006.2 |
| 20260507031032 | 59 | 360 | 3.5 | 8.7 | 0.00 | 0.18 | 0.18 | 89 | 1005.9 |
| 20260507030530 | 59 | 360 | 1.7 | 7.8 | 0.00 | 0.18 | 0.18 | 89 | 1005.9 |
| 20260507030046 | 59 | 360 | 2.6 | 7.8 | 0.00 | 0.18 | 0.18 | 89 | 1005.7 |
| 20260507025530 | 59 | 0 | 2.6 | 9.6 | 0.00 | 0.18 | 0.18 | 89 | 1005.6 |
| 20260507025031 | 59 | 360 | 3.5 | 9.6 | 0.00 | 0.18 | 0.18 | 89 | 1005.7 |
| 20260507024554 | 59 | 360 | 2.6 | 7.0 | 0.00 | 0.18 | 0.18 | 89 | 1005.7 |
| 20260507024031 | 59 | 360 | 3.5 | 10.4 | 0.00 | 0.18 | 0.18 | 89 | 1005.8 |
| 20260507023541 | 59 | 360 | 3.5 | 10.4 | 0.00 | 0.18 | 0.18 | 89 | 1005.7 |
| 20260507023045 | 59 | 360 | 3.5 | 10.4 | 0.00 | 0.18 | 0.18 | 89 | 1005.8 |
| 20260507022531 | 59 | 360 | 1.7 | 10.4 | 0.00 | 0.18 | 0.18 | 89 | 1005.9 |
| 20260507022031 | 59 | 360 | 3.5 | 10.4 | 0.00 | 0.18 | 0.18 | 89 | 1005.8 |
| 20260507021545 | 59 | 360 | 3.5 | 9.6 | 0.00 | 0.18 | 0.18 | 89 | 1005.9 |
| 20260507021030 | 59 | 360 | 1.7 | 9.6 | 0.00 | 0.18 | 0.18 | 89 | 1005.8 |
| 20260507020530 | 58 | 360 | 1.7 | 9.6 | 0.00 | 0.18 | 0.18 | 89 | 1005.8 |
| 20260507020055 | 58 | 360 | 3.5 | 7.0 | 0.00 | 0.18 | 0.18 | 89 | 1005.8 |
| 20260507015531 | 58 | 360 | 1.7 | 7.8 | 0.00 | 0.18 | 0.18 | 89 | 1005.8 |
| 20260507015030 | 58 | 360 | 1.7 | 7.8 | 0.00 | 0.18 | 0.18 | 89 | 1005.9 |
| 20260507014554 | 58 | 360 | 1.7 | 7.0 | 0.00 | 0.18 | 0.18 | 89 | 1006.0 |
| 20260507014031 | 58 | 360 | 0.9 | 8.7 | 0.00 | 0.18 | 0.18 | 89 | 1006.0 |
| 20260507013529 | 58 | 360 | 0.9 | 8.7 | 0.00 | 0.18 | 0.18 | 89 | 1006.0 |
| 20260507013048 | 58 | 360 | 2.6 | 8.7 | 0.00 | 0.18 | 0.18 | 89 | 1005.9 |
| 20260507012533 | 58 | 360 | 2.6 | 10.4 | 0.00 | 0.18 | 0.18 | 89 | 1006.1 |
| 20260507012031 | 58 | 360 | 3.5 | 10.4 | 0.00 | 0.18 | 0.18 | 89 | 1006.1 |
| 20260507011544 | 58 | 360 | 2.6 | 10.4 | 0.00 | 0.18 | 0.18 | 89 | 1006.1 |
| 20260507011030 | 58 | 0 | 3.5 | 10.4 | 0.00 | 0.18 | 0.18 | 89 | 1006.1 |
| 20260507010530 | 58 | 360 | 2.6 | 10.4 | 0.00 | 0.18 | 0.18 | 89 | 1006.1 |
| 20260507010044 | 58 | 360 | 1.7 | 8.7 | 0.00 | 0.18 | 0.18 | 89 | 1006.2 |
| 20260507005532 | 58 | 360 | 2.6 | 7.8 | 0.00 | 0.18 | 0.18 | 89 | 1006.2 |
| 20260507005032 | 58 | 360 | 1.7 | 7.8 | 0.00 | 0.18 | 0.18 | 89 | 1006.2 |
| 20260507004550 | 58 | 360 | 2.6 | 9.6 | 0.00 | 0.18 | 0.18 | 89 | 1006.2 |
| 20260507004030 | 58 | 360 | 3.5 | 10.4 | 0.00 | 0.18 | 0.18 | 89 | 1006.1 |
| 20260507003530 | 58 | 360 | 2.6 | 10.4 | 0.00 | 0.18 | 0.18 | 89 | 1006.1 |
| 20260507003047 | 58 | 360 | 2.6 | 9.6 | 0.00 | 0.18 | 0.18 | 89 | 1006.2 |
| 20260507002530 | 58 | 360 | 1.7 | 9.6 | 0.01 | 0.18 | 0.18 | 89 | 1006.1 |
| 20260507002030 | 58 | 360 | 1.7 | 9.6 | 0.01 | 0.18 | 0.18 | 89 | 1006.2 |
| 20260507001547 | 58 | 360 | 3.5 | 9.6 | 0.02 | 0.18 | 0.18 | 89 | 1006.2 |
| 20260507001030 | 58 | 360 | 2.6 | 11.3 | 0.03 | 0.18 | 0.18 | 89 | 1006.2 |
| 20260507000532 | 59 | 360 | 2.6 | 11.3 | 0.04 | 0.18 | 0.18 | 89 | 1006.1 |
| 20260507000045 | 59 | 360 | 0.9 | 9.6 | 0.04 | 0.18 | 0.18 | 89 | 1006.0 |
| 20260506235532 | 59 | 360 | 2.6 | 9.6 | 0.04 | 0.18 | 0.18 | 89 | 1006.0 |
| 20260506235030 | 59 | 360 | 1.7 | 7.0 | 0.04 | 0.18 | 0.18 | 89 | 1006.0 |
| 20260506234550 | 59 | 360 | 1.7 | 9.6 | 0.04 | 0.18 | 0.18 | 89 | 1006.0 |
| 20260506234031 | 59 | 360 | 0.9 | 9.6 | 0.04 | 0.18 | 0.18 | 89 | 1006.1 |
| 20260506233531 | 59 | 0 | 0.9 | 7.8 | 0.04 | 0.18 | 0.18 | 89 | 1005.9 |
| 20260506233043 | 59 | 360 | 1.7 | 12.2 | 0.05 | 0.18 | 0.18 | 89 | 1006.0 |
| 20260506232532 | 59 | 360 | 3.5 | 12.2 | 0.04 | 0.17 | 0.17 | 88 | 1005.9 |
| 20260506232031 | 59 | 360 | 1.7 | 8.7 | 0.04 | 0.17 | 0.17 | 88 | 1005.8 |
| 20260506231551 | 59 | 360 | 1.7 | 10.4 | 0.03 | 0.16 | 0.16 | 88 | 1005.9 |
| 20260506231031 | 59 | 360 | 2.6 | 10.4 | 0.02 | 0.15 | 0.15 | 88 | 1005.9 |
| 20260506230531 | 59 | 360 | 2.6 | 7.8 | 0.01 | 0.14 | 0.14 | 88 | 1006.0 |
| 20260506230056 | 59 | 360 | 1.7 | 7.8 | 0.01 | 0.14 | 0.14 | 88 | 1005.9 |
| 20260506225535 | 59 | 360 | 1.7 | 7.8 | 0.01 | 0.14 | 0.14 | 88 | 1005.9 |
| 20260506225031 | 59 | 360 | 1.7 | 8.7 | 0.02 | 0.14 | 0.14 | 88 | 1006.0 |
| 20260506224546 | 59 | 360 | 1.7 | 8.7 | 0.02 | 0.14 | 0.14 | 88 | 1006.1 |
| 20260506224030 | 59 | 360 | 2.6 | 8.7 | 0.02 | 0.14 | 0.14 | 88 | 1006.0 |
| 20260506223534 | 59 | 360 | 1.7 | 7.0 | 0.02 | 0.14 | 0.14 | 88 | 1006.1 |
| 20260506223053 | 59 | 360 | 1.7 | 7.0 | 0.01 | 0.13 | 0.13 | 88 | 1006.2 |
| 20260506222531 | 59 | 360 | 2.6 | 7.0 | 0.01 | 0.13 | 0.13 | 87 | 1006.2 |
| 20260506222031 | 60 | 360 | 0.9 | 9.6 | 0.01 | 0.13 | 0.13 | 87 | 1006.3 |